Location: Buckeye Ditch
(40.9104°N, 122.9517°W)
Time: 10:43:42
(UTC+00:00)

Cosmos 1939 Rocket - Pass Details

Date: 13 April 2024
Orbit: 515 x 558 km, 97.4° (Epoch: 24 May)

Event Time Altitude Azimuth Distance (km) Brightness Sun altitude
Rises 12:31:45 0° 19° (NNE) 2,642 7.0 -12.1°
Reaches altitude 10° 12:33:56 10° 26° (NNE) 1,749 6.1 -11.8°
Maximum altitude 12:37:32 43° 99° (E) 736 4.0 -11.1°
Drops below altitude 10° 12:41:07 10° 172° (S) 1,742 5.2 -10.5°
Sets 12:43:17 0° 179° (S) 2,629 6.1 -10.1°
